Year,Month,Day,Hour,Minute,Value (Times are PST for temperature in C)
2014,09,20,00,00,12.00
2014,09,20,00,01,12.00
2014,09,20,00,02,11.90
2014,09,20,00,03,11.90
2014,09,20,00,04,11.90
2014,09,20,00,05,11.90
2014,09,20,00,06,11.90
2014,09,20,00,07,11.90
2014,09,20,00,08,11.90
2014,09,20,00,09,11.90
2014,09,20,00,10,11.90
2014,09,20,00,11,11.90
2014,09,20,00,12,11.80
2014,09,20,00,13,11.80
2014,09,20,00,14,11.80
2014,09,20,00,15,11.80
2014,09,20,00,16,11.80
2014,09,20,00,17,11.80
2014,09,20,00,18,11.80
2014,09,20,00,19,11.80
2014,09,20,00,20,11.80
2014,09,20,00,21,11.80
2014,09,20,00,22,11.80
2014,09,20,00,23,11.80
2014,09,20,00,24,11.80
2014,09,20,00,25,11.80
2014,09,20,00,26,11.80
2014,09,20,00,27,11.80
2014,09,20,00,28,11.80
2014,09,20,00,29,11.90
2014,09,20,00,30,11.90
2014,09,20,00,31,11.90
2014,09,20,00,32,11.90
2014,09,20,00,33,11.90
2014,09,20,00,34,11.90
2014,09,20,00,35,11.90
2014,09,20,00,36,11.90
2014,09,20,00,37,12.00
2014,09,20,00,38,12.00
2014,09,20,00,39,12.10
2014,09,20,00,40,12.10
2014,09,20,00,41,12.20
2014,09,20,00,42,12.20
2014,09,20,00,43,12.30
2014,09,20,00,44,12.30
2014,09,20,00,45,12.30
2014,09,20,00,46,12.40
2014,09,20,00,47,12.40
2014,09,20,00,48,12.40
2014,09,20,00,49,12.40
2014,09,20,00,50,12.50
2014,09,20,00,51,12.50
2014,09,20,00,52,12.50
2014,09,20,00,53,12.60
2014,09,20,00,54,12.60
2014,09,20,00,55,12.60
2014,09,20,00,56,12.60
2014,09,20,00,57,12.60
2014,09,20,00,58,12.70
2014,09,20,00,59,12.70
2014,09,20,01,00,12.70
2014,09,20,01,01,12.70
2014,09,20,01,02,12.70
2014,09,20,01,03,12.70
2014,09,20,01,04,12.70
2014,09,20,01,05,12.70
2014,09,20,01,06,12.70
2014,09,20,01,07,12.70
2014,09,20,01,08,12.70
2014,09,20,01,09,12.80
2014,09,20,01,10,12.80
2014,09,20,01,11,12.80
2014,09,20,01,12,12.80
2014,09,20,01,13,12.70
2014,09,20,01,14,12.80
2014,09,20,01,15,12.80
2014,09,20,01,16,12.80
2014,09,20,01,17,12.80
2014,09,20,01,18,12.80
2014,09,20,01,19,12.80
2014,09,20,01,20,12.80
2014,09,20,01,21,12.80
2014,09,20,01,22,12.80
2014,09,20,01,23,12.80
2014,09,20,01,24,12.80
2014,09,20,01,25,12.80
2014,09,20,01,26,12.80
2014,09,20,01,27,12.90
2014,09,20,01,28,12.80
2014,09,20,01,29,12.90
2014,09,20,01,30,12.90
2014,09,20,01,31,12.90
2014,09,20,01,32,12.90
2014,09,20,01,33,12.90
2014,09,20,01,34,12.90
2014,09,20,01,35,13.00
2014,09,20,01,36,13.00
2014,09,20,01,37,13.00
2014,09,20,01,38,13.00
2014,09,20,01,39,13.00
2014,09,20,01,40,13.00
2014,09,20,01,41,13.00
2014,09,20,01,42,13.00
2014,09,20,01,43,13.10
2014,09,20,01,44,13.10
2014,09,20,01,45,13.10
2014,09,20,01,46,13.10
2014,09,20,01,47,13.10
2014,09,20,01,48,13.10
2014,09,20,01,49,13.10
2014,09,20,01,50,13.10
2014,09,20,01,51,13.10
2014,09,20,01,52,13.10
2014,09,20,01,53,13.10
2014,09,20,01,54,13.20
2014,09,20,01,55,13.20
2014,09,20,01,56,13.20
2014,09,20,01,57,13.20
2014,09,20,01,58,13.20
2014,09,20,01,59,13.20
2014,09,20,02,00,13.20
2014,09,20,02,01,13.20
2014,09,20,02,02,13.20
2014,09,20,02,03,13.30
2014,09,20,02,04,13.30
2014,09,20,02,05,13.30
2014,09,20,02,06,13.30
2014,09,20,02,07,13.30
2014,09,20,02,08,13.40
2014,09,20,02,09,13.40
2014,09,20,02,10,13.40
2014,09,20,02,11,13.40
2014,09,20,02,12,13.40
2014,09,20,02,13,13.40
2014,09,20,02,14,13.40
2014,09,20,02,15,13.40
2014,09,20,02,16,13.40
2014,09,20,02,17,13.40
2014,09,20,02,18,13.40
2014,09,20,02,19,13.40
2014,09,20,02,20,13.40
2014,09,20,02,21,13.50
2014,09,20,02,22,13.50
2014,09,20,02,23,13.50
2014,09,20,02,24,13.60
2014,09,20,02,25,13.60
2014,09,20,02,26,13.60
2014,09,20,02,27,13.60
2014,09,20,02,28,13.60
2014,09,20,02,29,13.60
2014,09,20,02,30,13.60
2014,09,20,02,31,13.60
2014,09,20,02,32,13.60
2014,09,20,02,33,13.70
2014,09,20,02,34,13.70
2014,09,20,02,35,13.70
2014,09,20,02,36,13.70
2014,09,20,02,37,13.70
2014,09,20,02,38,13.70
2014,09,20,02,39,13.70
2014,09,20,02,40,13.70
2014,09,20,02,41,13.70
2014,09,20,02,42,13.70
2014,09,20,02,43,13.70
2014,09,20,02,44,13.80
2014,09,20,02,45,13.80
2014,09,20,02,46,13.80
2014,09,20,02,47,13.80
2014,09,20,02,48,13.80
2014,09,20,02,49,13.80
2014,09,20,02,50,13.80
2014,09,20,02,51,13.80
2014,09,20,02,52,13.80
2014,09,20,02,53,13.80
2014,09,20,02,54,13.80
2014,09,20,02,55,13.80
2014,09,20,02,56,13.90
2014,09,20,02,57,13.90
2014,09,20,02,58,13.90
2014,09,20,02,59,13.90
2014,09,20,03,00,13.90
2014,09,20,03,01,14.00
2014,09,20,03,02,14.00
2014,09,20,03,03,14.00
2014,09,20,03,04,14.00
2014,09,20,03,05,14.00
2014,09,20,03,06,14.00
2014,09,20,03,07,14.00
2014,09,20,03,08,14.00
2014,09,20,03,09,14.10
2014,09,20,03,10,14.10
2014,09,20,03,11,14.10
2014,09,20,03,12,14.10
2014,09,20,03,13,14.10
2014,09,20,03,14,14.10
2014,09,20,03,15,14.10
2014,09,20,03,16,14.10
2014,09,20,03,17,14.10
2014,09,20,03,18,14.10
2014,09,20,03,19,14.10
2014,09,20,03,20,14.10
2014,09,20,03,21,14.10
2014,09,20,03,22,14.10
2014,09,20,03,23,14.10
2014,09,20,03,24,14.10
2014,09,20,03,25,14.10
2014,09,20,03,26,14.10
2014,09,20,03,27,14.10
2014,09,20,03,28,14.10
2014,09,20,03,29,14.10
2014,09,20,03,30,14.10
2014,09,20,03,31,14.10
2014,09,20,03,32,14.10
2014,09,20,03,33,14.10
2014,09,20,03,34,14.10
2014,09,20,03,35,14.10
2014,09,20,03,36,14.10
2014,09,20,03,37,14.10
2014,09,20,03,38,14.10
2014,09,20,03,39,14.10
2014,09,20,03,40,14.10
2014,09,20,03,41,14.10
2014,09,20,03,42,14.20
2014,09,20,03,43,14.20
2014,09,20,03,44,14.20
2014,09,20,03,45,14.20
2014,09,20,03,46,14.20
2014,09,20,03,47,14.20
2014,09,20,03,48,14.20
2014,09,20,03,49,14.20
2014,09,20,03,50,14.20
2014,09,20,03,51,14.20
2014,09,20,03,52,14.20
2014,09,20,03,53,14.20
2014,09,20,03,54,14.20
2014,09,20,03,55,14.20
2014,09,20,03,56,14.20
2014,09,20,03,57,14.20
2014,09,20,03,58,14.20
2014,09,20,03,59,14.20
2014,09,20,04,00,14.20
2014,09,20,04,01,14.20
2014,09,20,04,02,14.20
2014,09,20,04,03,14.20
2014,09,20,04,04,14.20
2014,09,20,04,05,14.20
2014,09,20,04,06,14.20
2014,09,20,04,07,14.20
2014,09,20,04,08,14.20
2014,09,20,04,09,14.20
2014,09,20,04,10,14.20
2014,09,20,04,11,14.20
2014,09,20,04,12,14.20
2014,09,20,04,13,14.20
2014,09,20,04,14,14.20
2014,09,20,04,15,14.20
2014,09,20,04,16,14.20
2014,09,20,04,17,14.20
2014,09,20,04,18,14.20
2014,09,20,04,19,14.20
2014,09,20,04,20,14.20
2014,09,20,04,21,14.20
2014,09,20,04,22,14.20
2014,09,20,04,23,14.20
2014,09,20,04,24,14.30
2014,09,20,04,25,14.30
2014,09,20,04,26,14.30
2014,09,20,04,27,14.30
2014,09,20,04,28,14.30
2014,09,20,04,29,14.30
2014,09,20,04,30,14.20
2014,09,20,04,31,14.20
2014,09,20,04,32,14.20
2014,09,20,04,33,14.20
2014,09,20,04,34,14.20
2014,09,20,04,35,14.20
2014,09,20,04,36,14.20
2014,09,20,04,37,14.20
2014,09,20,04,38,14.20
2014,09,20,04,39,14.20
2014,09,20,04,40,14.20
2014,09,20,04,41,14.20
2014,09,20,04,42,14.20
2014,09,20,04,43,14.20
2014,09,20,04,44,14.20
2014,09,20,04,45,14.20
2014,09,20,04,46,14.20
2014,09,20,04,47,14.20
2014,09,20,04,48,14.20
2014,09,20,04,49,14.20
2014,09,20,04,50,14.20
2014,09,20,04,51,14.20
2014,09,20,04,52,14.20
2014,09,20,04,53,14.20
2014,09,20,04,54,14.20
2014,09,20,04,55,14.30
2014,09,20,04,56,14.20
2014,09,20,04,57,14.20
2014,09,20,04,58,14.20
2014,09,20,04,59,14.20
2014,09,20,05,00,14.20
2014,09,20,05,01,14.20
2014,09,20,05,02,14.20
2014,09,20,05,03,14.20
2014,09,20,05,04,14.20
2014,09,20,05,05,14.20
2014,09,20,05,06,14.20
2014,09,20,05,07,14.20
2014,09,20,05,08,14.20
2014,09,20,05,09,14.30
2014,09,20,05,10,14.20
2014,09,20,05,11,14.30
2014,09,20,05,12,14.30
2014,09,20,05,13,14.30
2014,09,20,05,14,14.30
2014,09,20,05,15,14.30
2014,09,20,05,16,14.30
2014,09,20,05,17,14.30
2014,09,20,05,18,14.30
2014,09,20,05,19,14.30
2014,09,20,05,20,14.30
2014,09,20,05,21,14.30
2014,09,20,05,22,14.30
2014,09,20,05,23,14.30
2014,09,20,05,24,14.30
2014,09,20,05,25,14.30
2014,09,20,05,26,14.30
2014,09,20,05,27,14.30
2014,09,20,05,28,14.30
2014,09,20,05,29,14.30
2014,09,20,05,30,14.30
2014,09,20,05,31,14.30
2014,09,20,05,32,14.30
2014,09,20,05,33,14.30
2014,09,20,05,34,14.30
2014,09,20,05,35,14.30
2014,09,20,05,36,14.30
2014,09,20,05,37,14.30
2014,09,20,05,38,14.30
2014,09,20,05,39,14.30
2014,09,20,05,40,14.30
2014,09,20,05,41,14.30
2014,09,20,05,42,14.30
2014,09,20,05,43,14.30
2014,09,20,05,44,14.40
2014,09,20,05,45,14.40
2014,09,20,05,46,14.40
2014,09,20,05,47,14.40
2014,09,20,05,48,14.40
2014,09,20,05,49,14.40
2014,09,20,05,50,14.40
2014,09,20,05,51,14.40
2014,09,20,05,52,14.40
2014,09,20,05,53,14.40
2014,09,20,05,54,14.40
2014,09,20,05,55,14.40
2014,09,20,05,56,14.40
2014,09,20,05,57,14.40
2014,09,20,05,58,14.40
2014,09,20,05,59,14.40
2014,09,20,06,00,14.40
2014,09,20,06,01,14.40
2014,09,20,06,02,14.40
2014,09,20,06,03,14.40
2014,09,20,06,04,14.40
2014,09,20,06,05,14.40
2014,09,20,06,06,14.40
2014,09,20,06,07,14.40
2014,09,20,06,08,14.40
2014,09,20,06,09,14.40
2014,09,20,06,10,14.40
2014,09,20,06,11,14.40
2014,09,20,06,12,14.40
2014,09,20,06,13,14.40
2014,09,20,06,14,14.40
2014,09,20,06,15,14.40
2014,09,20,06,16,14.40
2014,09,20,06,17,14.40
2014,09,20,06,18,14.40
2014,09,20,06,19,14.40
2014,09,20,06,20,14.40
2014,09,20,06,21,14.40
2014,09,20,06,22,14.40
2014,09,20,06,23,14.40
2014,09,20,06,24,14.40
2014,09,20,06,25,14.40
2014,09,20,06,26,14.40
2014,09,20,06,27,14.40
2014,09,20,06,28,14.40
2014,09,20,06,29,14.40
2014,09,20,06,30,14.40
2014,09,20,06,31,14.40
2014,09,20,06,32,14.40
2014,09,20,06,33,14.40
2014,09,20,06,34,14.50
2014,09,20,06,35,14.50
2014,09,20,06,36,14.50
2014,09,20,06,37,14.50
2014,09,20,06,38,14.50
2014,09,20,06,39,14.40
2014,09,20,06,40,14.40
2014,09,20,06,41,14.40
2014,09,20,06,42,14.50
2014,09,20,06,43,14.50
2014,09,20,06,44,14.40
2014,09,20,06,45,14.40
2014,09,20,06,46,14.40
2014,09,20,06,47,14.50
2014,09,20,06,48,14.50
2014,09,20,06,49,14.50
2014,09,20,06,50,14.50
2014,09,20,06,51,14.50
2014,09,20,06,52,14.50
2014,09,20,06,53,14.50
2014,09,20,06,54,14.50
2014,09,20,06,55,14.50
2014,09,20,06,56,14.50
2014,09,20,06,57,14.50
2014,09,20,06,58,14.50
2014,09,20,06,59,14.50
2014,09,20,07,00,14.50
2014,09,20,07,01,14.50
2014,09,20,07,02,14.50
2014,09,20,07,03,14.50
2014,09,20,07,04,14.50
2014,09,20,07,05,14.50
2014,09,20,07,06,14.50
2014,09,20,07,07,14.50
2014,09,20,07,08,14.50
2014,09,20,07,09,14.50
2014,09,20,07,10,14.50
2014,09,20,07,11,14.50
2014,09,20,07,12,14.50
2014,09,20,07,13,14.60
2014,09,20,07,14,14.50
2014,09,20,07,15,14.60
2014,09,20,07,16,14.60
2014,09,20,07,17,14.60
2014,09,20,07,18,14.60
2014,09,20,07,19,14.60
2014,09,20,07,20,14.60
2014,09,20,07,21,14.60
2014,09,20,07,22,14.60
2014,09,20,07,23,14.60
2014,09,20,07,24,14.60
2014,09,20,07,25,14.60
2014,09,20,07,26,14.60
2014,09,20,07,27,14.60
2014,09,20,07,28,14.60
2014,09,20,07,29,14.60
2014,09,20,07,30,14.60
2014,09,20,07,31,14.60
2014,09,20,07,32,14.60
2014,09,20,07,33,14.60
2014,09,20,07,34,14.70
2014,09,20,07,35,14.70
2014,09,20,07,36,14.70
2014,09,20,07,37,14.70
2014,09,20,07,38,14.70
2014,09,20,07,39,14.70
2014,09,20,07,40,14.70
2014,09,20,07,41,14.70
2014,09,20,07,42,14.70
2014,09,20,07,43,14.70
2014,09,20,07,44,14.70
2014,09,20,07,45,14.70
2014,09,20,07,46,14.70
2014,09,20,07,47,14.70
2014,09,20,07,48,14.70
2014,09,20,07,49,14.70
2014,09,20,07,50,14.70
2014,09,20,07,51,14.70
2014,09,20,07,52,14.70
2014,09,20,07,53,14.70
2014,09,20,07,54,14.70
2014,09,20,07,55,14.70
2014,09,20,07,56,14.70
2014,09,20,07,57,14.70
2014,09,20,07,58,14.80
2014,09,20,07,59,14.80
2014,09,20,08,00,14.80
2014,09,20,08,01,14.80
2014,09,20,08,02,14.80
2014,09,20,08,03,14.80
2014,09,20,08,04,14.80
2014,09,20,08,05,14.80
2014,09,20,08,06,14.80
2014,09,20,08,07,14.80
2014,09,20,08,08,14.80
2014,09,20,08,09,14.80
2014,09,20,08,10,14.80
2014,09,20,08,11,14.80
2014,09,20,08,12,14.80
2014,09,20,08,13,14.80
2014,09,20,08,14,14.80
2014,09,20,08,15,14.80
2014,09,20,08,16,14.80
2014,09,20,08,17,14.80
2014,09,20,08,18,14.80
2014,09,20,08,19,14.80
2014,09,20,08,20,14.80
2014,09,20,08,21,14.80
2014,09,20,08,22,14.80
2014,09,20,08,23,14.90
2014,09,20,08,24,14.90
2014,09,20,08,25,14.90
2014,09,20,08,26,14.90
2014,09,20,08,27,14.90
2014,09,20,08,28,14.90
2014,09,20,08,29,14.90
2014,09,20,08,30,14.90
2014,09,20,08,31,14.90
2014,09,20,08,32,14.90
2014,09,20,08,33,14.90
2014,09,20,08,34,14.90
2014,09,20,08,35,14.90
2014,09,20,08,36,14.90
2014,09,20,08,37,14.90
2014,09,20,08,38,14.90
2014,09,20,08,39,14.90
2014,09,20,08,40,14.90
2014,09,20,08,41,14.90
2014,09,20,08,42,14.90
2014,09,20,08,43,14.90
2014,09,20,08,44,14.90
2014,09,20,08,45,14.90
2014,09,20,08,46,15.00
2014,09,20,08,47,15.00
2014,09,20,08,48,15.00
2014,09,20,08,49,15.00
2014,09,20,08,50,15.00
2014,09,20,08,51,15.00
2014,09,20,08,52,15.00
2014,09,20,08,53,15.00
2014,09,20,08,54,15.00
2014,09,20,08,55,15.00
2014,09,20,08,56,15.00
2014,09,20,08,57,15.00
2014,09,20,08,58,15.10
2014,09,20,08,59,15.10
2014,09,20,09,00,15.10
2014,09,20,09,01,15.10
2014,09,20,09,02,15.10
2014,09,20,09,03,15.10
2014,09,20,09,04,15.10
2014,09,20,09,05,15.10
2014,09,20,09,06,15.10
2014,09,20,09,07,15.10
2014,09,20,09,08,15.10
2014,09,20,09,09,15.10
2014,09,20,09,10,15.10
2014,09,20,09,11,15.10
2014,09,20,09,12,15.10
2014,09,20,09,13,15.10
2014,09,20,09,14,15.10
2014,09,20,09,15,15.10
2014,09,20,09,16,15.10
2014,09,20,09,17,15.20
2014,09,20,09,18,15.20
2014,09,20,09,19,15.20
2014,09,20,09,20,15.10
2014,09,20,09,21,15.10
2014,09,20,09,22,15.20
2014,09,20,09,23,15.20
2014,09,20,09,24,15.20
2014,09,20,09,25,15.10
2014,09,20,09,26,15.10
2014,09,20,09,27,15.20
2014,09,20,09,28,15.20
2014,09,20,09,29,15.20
2014,09,20,09,30,15.20
2014,09,20,09,31,15.20
2014,09,20,09,32,15.20
2014,09,20,09,33,15.20
2014,09,20,09,34,15.20
2014,09,20,09,35,15.20
2014,09,20,09,36,15.20
2014,09,20,09,37,15.20
2014,09,20,09,38,15.20
2014,09,20,09,39,15.20
2014,09,20,09,40,15.30
2014,09,20,09,41,15.30
2014,09,20,09,42,15.30
2014,09,20,09,43,15.30
2014,09,20,09,44,15.30
2014,09,20,09,45,15.30
2014,09,20,09,46,15.30
2014,09,20,09,47,15.30
2014,09,20,09,48,15.40
2014,09,20,09,49,15.40
2014,09,20,09,50,15.40
2014,09,20,09,51,15.50
2014,09,20,09,52,15.50
2014,09,20,09,53,15.50
2014,09,20,09,54,15.50
2014,09,20,09,55,15.50
2014,09,20,09,56,15.50
2014,09,20,09,57,15.50
2014,09,20,09,58,15.50
2014,09,20,09,59,15.50
2014,09,20,10,00,15.50
2014,09,20,10,01,15.60
2014,09,20,10,02,15.60
2014,09,20,10,03,15.60
2014,09,20,10,04,15.60
2014,09,20,10,05,15.70
2014,09,20,10,06,15.70
2014,09,20,10,07,15.70
2014,09,20,10,08,15.70
2014,09,20,10,09,15.70
2014,09,20,10,10,15.80
2014,09,20,10,11,15.80
2014,09,20,10,12,15.80
2014,09,20,10,13,15.80
2014,09,20,10,14,15.90
2014,09,20,10,15,15.90
2014,09,20,10,16,15.90
2014,09,20,10,17,15.90
2014,09,20,10,18,15.90
2014,09,20,10,19,16.00
2014,09,20,10,20,16.00
2014,09,20,10,21,16.00
2014,09,20,10,22,16.00
2014,09,20,10,23,16.00
2014,09,20,10,24,16.00
2014,09,20,10,25,16.00
2014,09,20,10,26,16.00
2014,09,20,10,27,16.00
2014,09,20,10,28,16.00
2014,09,20,10,29,16.00
2014,09,20,10,30,16.00
2014,09,20,10,31,16.00
2014,09,20,10,32,16.00
2014,09,20,10,33,16.00
2014,09,20,10,34,16.00
2014,09,20,10,35,16.00
2014,09,20,10,36,16.00
2014,09,20,10,37,16.10
2014,09,20,10,38,16.10
2014,09,20,10,39,16.10
2014,09,20,10,40,16.10
2014,09,20,10,41,16.10
2014,09,20,10,42,16.10
2014,09,20,10,43,16.20
2014,09,20,10,44,16.20
2014,09,20,10,45,16.20
2014,09,20,10,46,16.20
2014,09,20,10,47,16.20
2014,09,20,10,48,16.20
2014,09,20,10,49,16.20
2014,09,20,10,50,16.30
2014,09,20,10,51,16.30
2014,09,20,10,52,16.30
2014,09,20,10,53,16.30
2014,09,20,10,54,16.30
2014,09,20,10,55,16.30
2014,09,20,10,56,16.30
2014,09,20,10,57,16.30
2014,09,20,10,58,16.30
2014,09,20,10,59,16.30
2014,09,20,11,00,16.30
2014,09,20,11,01,16.30
2014,09,20,11,02,16.30
2014,09,20,11,03,16.30
2014,09,20,11,04,16.40
2014,09,20,11,05,16.40
2014,09,20,11,06,16.40
2014,09,20,11,07,16.40
2014,09,20,11,08,16.40
2014,09,20,11,09,16.40
2014,09,20,11,10,16.40
2014,09,20,11,11,16.40
2014,09,20,11,12,16.40
2014,09,20,11,13,16.40
2014,09,20,11,14,16.50
2014,09,20,11,15,16.50
2014,09,20,11,16,16.60
2014,09,20,11,17,16.60
2014,09,20,11,18,16.60
2014,09,20,11,19,16.60
2014,09,20,11,20,16.60
2014,09,20,11,21,16.60
2014,09,20,11,22,16.60
2014,09,20,11,23,16.70
2014,09,20,11,24,16.70
2014,09,20,11,25,16.70
2014,09,20,11,26,16.70
2014,09,20,11,27,16.70
2014,09,20,11,28,16.70
2014,09,20,11,29,16.70
2014,09,20,11,30,16.80
2014,09,20,11,31,16.80
2014,09,20,11,32,16.90
2014,09,20,11,33,16.90
2014,09,20,11,34,16.90
2014,09,20,11,35,16.90
2014,09,20,11,36,17.00
2014,09,20,11,37,17.00
2014,09,20,11,38,17.10
2014,09,20,11,39,17.10
2014,09,20,11,40,17.10
2014,09,20,11,41,17.10
2014,09,20,11,42,17.10
2014,09,20,11,43,17.10
2014,09,20,11,44,17.20
2014,09,20,11,45,17.20
2014,09,20,11,46,17.20
2014,09,20,11,47,17.30
2014,09,20,11,48,17.30
2014,09,20,11,49,17.30
2014,09,20,11,50,17.40
2014,09,20,11,51,17.40
2014,09,20,11,52,17.50
2014,09,20,11,53,17.60
2014,09,20,11,54,17.60
2014,09,20,11,55,17.70
2014,09,20,11,56,17.70
2014,09,20,11,57,17.70
2014,09,20,11,58,17.70
2014,09,20,11,59,17.70
2014,09,20,12,00,17.60
2014,09,20,12,01,17.60
2014,09,20,12,02,17.60
2014,09,20,12,03,17.60
2014,09,20,12,04,17.60
2014,09,20,12,05,17.50
2014,09,20,12,06,17.40
2014,09,20,12,07,17.40
2014,09,20,12,08,17.30
2014,09,20,12,09,17.30
2014,09,20,12,10,17.30
2014,09,20,12,11,17.30
2014,09,20,12,12,17.30
2014,09,20,12,13,17.30
2014,09,20,12,14,17.30
2014,09,20,12,15,17.30
2014,09,20,12,16,17.30
2014,09,20,12,17,17.30
2014,09,20,12,18,17.30
2014,09,20,12,19,17.30
2014,09,20,12,20,17.40
2014,09,20,12,21,17.40
2014,09,20,12,22,17.40
2014,09,20,12,23,17.40
2014,09,20,12,24,17.40
2014,09,20,12,25,17.40
2014,09,20,12,26,17.40
2014,09,20,12,27,17.30
2014,09,20,12,28,17.30
2014,09,20,12,29,17.30
2014,09,20,12,30,17.30
2014,09,20,12,31,17.30
2014,09,20,12,32,17.40
2014,09,20,12,33,17.40
2014,09,20,12,34,17.40
2014,09,20,12,35,17.40
2014,09,20,12,36,17.40
2014,09,20,12,37,17.40
2014,09,20,12,38,17.40
2014,09,20,12,39,17.40
2014,09,20,12,40,17.30
2014,09,20,12,41,17.30
2014,09,20,12,42,17.30
2014,09,20,12,43,17.30
2014,09,20,12,44,17.30
2014,09,20,12,45,17.30
2014,09,20,12,46,17.20
2014,09,20,12,47,17.20
2014,09,20,12,48,17.10
2014,09,20,12,49,17.10
2014,09,20,12,50,17.10
2014,09,20,12,51,17.00
2014,09,20,12,52,17.00
2014,09,20,12,53,17.10
2014,09,20,12,54,17.10
2014,09,20,12,55,17.10
2014,09,20,12,56,17.10
2014,09,20,12,57,17.20
2014,09,20,12,58,17.20
2014,09,20,12,59,17.20
2014,09,20,13,00,17.30
2014,09,20,13,01,17.30
2014,09,20,13,02,17.30
2014,09,20,13,03,17.30
2014,09,20,13,04,17.40
2014,09,20,13,05,17.40
2014,09,20,13,06,17.50
2014,09,20,13,07,17.60
2014,09,20,13,08,17.60
2014,09,20,13,09,17.60
2014,09,20,13,10,17.70
2014,09,20,13,11,17.70
2014,09,20,13,12,17.70
2014,09,20,13,13,17.70
2014,09,20,13,14,17.60
2014,09,20,13,15,17.60
2014,09,20,13,16,17.70
2014,09,20,13,17,17.70
2014,09,20,13,18,17.70
2014,09,20,13,19,17.80
2014,09,20,13,20,17.80
2014,09,20,13,21,17.80
2014,09,20,13,22,17.80
2014,09,20,13,23,17.80
2014,09,20,13,24,17.70
2014,09,20,13,25,17.70
2014,09,20,13,26,17.70
2014,09,20,13,27,17.80
2014,09,20,13,28,17.80
2014,09,20,13,29,17.80
2014,09,20,13,30,17.80
2014,09,20,13,31,17.80
2014,09,20,13,32,17.80
2014,09,20,13,33,17.80
2014,09,20,13,34,17.80
2014,09,20,13,35,17.80
2014,09,20,13,36,17.80
2014,09,20,13,37,17.80
2014,09,20,13,38,17.80
2014,09,20,13,39,17.80
2014,09,20,13,40,17.80
2014,09,20,13,41,17.80
2014,09,20,13,42,17.80
2014,09,20,13,43,17.80
2014,09,20,13,44,17.80
2014,09,20,13,45,17.80
2014,09,20,13,46,17.80
2014,09,20,13,47,17.90
2014,09,20,13,48,17.90
2014,09,20,13,49,17.90
2014,09,20,13,50,17.90
2014,09,20,13,51,17.90
2014,09,20,13,52,17.90
2014,09,20,13,53,17.90
2014,09,20,13,54,17.90
2014,09,20,13,55,17.90
2014,09,20,13,56,17.90
2014,09,20,13,57,17.90
2014,09,20,13,58,17.80
2014,09,20,13,59,17.80
2014,09,20,14,00,17.70
2014,09,20,14,01,17.70
2014,09,20,14,02,17.70
2014,09,20,14,03,17.70
2014,09,20,14,04,17.70
2014,09,20,14,05,17.70
2014,09,20,14,06,17.80
2014,09,20,14,07,17.80
2014,09,20,14,08,17.80
2014,09,20,14,09,17.80
2014,09,20,14,10,17.80
2014,09,20,14,11,17.80
2014,09,20,14,12,17.80
2014,09,20,14,13,17.80
2014,09,20,14,14,17.80
2014,09,20,14,15,17.90
2014,09,20,14,16,17.90
2014,09,20,14,17,17.90
2014,09,20,14,18,17.90
2014,09,20,14,19,17.90
2014,09,20,14,20,18.00
2014,09,20,14,21,18.00
2014,09,20,14,22,18.10
2014,09,20,14,23,18.20
2014,09,20,14,24,18.30
2014,09,20,14,25,18.40
2014,09,20,14,26,18.50
2014,09,20,14,27,18.50
2014,09,20,14,28,18.60
2014,09,20,14,29,18.60
2014,09,20,14,30,18.60
2014,09,20,14,31,18.60
2014,09,20,14,32,18.60
2014,09,20,14,33,18.70
2014,09,20,14,34,18.70
2014,09,20,14,35,18.70
2014,09,20,14,36,18.70
2014,09,20,14,37,18.70
2014,09,20,14,38,18.70
2014,09,20,14,39,18.70
2014,09,20,14,40,18.80
2014,09,20,14,41,18.80
2014,09,20,14,42,18.80
2014,09,20,14,43,18.80
2014,09,20,14,44,18.90
2014,09,20,14,45,18.90
2014,09,20,14,46,18.90
2014,09,20,14,47,18.90
2014,09,20,14,48,18.90
2014,09,20,14,49,18.90
2014,09,20,14,50,18.80
2014,09,20,14,51,18.80
2014,09,20,14,52,18.80
2014,09,20,14,53,18.70
2014,09,20,14,54,18.70
2014,09,20,14,55,18.70
2014,09,20,14,56,18.70
2014,09,20,14,57,18.70
2014,09,20,14,58,18.70
2014,09,20,14,59,18.70
2014,09,20,15,00,18.70
2014,09,20,15,01,18.70
2014,09,20,15,02,18.70
2014,09,20,15,03,18.70
2014,09,20,15,04,18.70
2014,09,20,15,05,18.70
2014,09,20,15,06,18.70
2014,09,20,15,07,18.70
2014,09,20,15,08,18.70
2014,09,20,15,09,18.70
2014,09,20,15,10,18.70
2014,09,20,15,11,18.80
2014,09,20,15,12,18.80
2014,09,20,15,13,18.90
2014,09,20,15,14,18.90
2014,09,20,15,15,18.90
2014,09,20,15,16,18.90
2014,09,20,15,17,18.90
2014,09,20,15,18,18.90
2014,09,20,15,19,18.90
2014,09,20,15,20,18.90
2014,09,20,15,21,18.90
2014,09,20,15,22,18.90
2014,09,20,15,23,18.90
2014,09,20,15,24,18.90
2014,09,20,15,25,19.00
2014,09,20,15,26,19.00
2014,09,20,15,27,19.00
2014,09,20,15,28,19.10
2014,09,20,15,29,19.10
2014,09,20,15,30,19.20
2014,09,20,15,31,19.30
2014,09,20,15,32,19.30
2014,09,20,15,33,19.40
2014,09,20,15,34,19.40
2014,09,20,15,35,19.40
2014,09,20,15,36,19.40
2014,09,20,15,37,19.40
2014,09,20,15,38,19.40
2014,09,20,15,39,19.40
2014,09,20,15,40,19.40
2014,09,20,15,41,19.40
2014,09,20,15,42,19.50
2014,09,20,15,43,19.50
2014,09,20,15,44,19.60
2014,09,20,15,45,19.60
2014,09,20,15,46,19.60
2014,09,20,15,47,19.60
2014,09,20,15,48,19.70
2014,09,20,15,49,19.70
2014,09,20,15,50,19.70
2014,09,20,15,51,19.70
2014,09,20,15,52,19.70
2014,09,20,15,53,19.70
2014,09,20,15,54,19.80
2014,09,20,15,55,19.80
2014,09,20,15,56,19.80
2014,09,20,15,57,19.80
2014,09,20,15,58,19.80
2014,09,20,15,59,19.80
2014,09,20,16,00,19.90
2014,09,20,16,01,19.90
2014,09,20,16,02,19.90
2014,09,20,16,03,19.90
2014,09,20,16,04,19.90
2014,09,20,16,05,19.90
2014,09,20,16,06,19.80
2014,09,20,16,07,19.80
2014,09,20,16,08,19.80
2014,09,20,16,09,19.80
2014,09,20,16,10,19.80
2014,09,20,16,11,19.80
2014,09,20,16,12,19.80
2014,09,20,16,13,19.80
2014,09,20,16,14,19.70
2014,09,20,16,15,19.70
2014,09,20,16,16,19.70
2014,09,20,16,17,19.70
2014,09,20,16,18,19.70
2014,09,20,16,19,19.80
2014,09,20,16,20,19.80
2014,09,20,16,21,19.80
2014,09,20,16,22,19.80
2014,09,20,16,23,19.80
2014,09,20,16,24,19.80
2014,09,20,16,25,19.80
2014,09,20,16,26,19.80
2014,09,20,16,27,19.80
2014,09,20,16,28,19.80
2014,09,20,16,29,19.80
2014,09,20,16,30,19.80
2014,09,20,16,31,19.80
2014,09,20,16,32,19.80
2014,09,20,16,33,19.80
2014,09,20,16,34,19.80
2014,09,20,16,35,19.80
2014,09,20,16,36,19.80
2014,09,20,16,37,19.80
2014,09,20,16,38,19.80
2014,09,20,16,39,19.80
2014,09,20,16,40,19.90
2014,09,20,16,41,19.90
2014,09,20,16,42,19.90
2014,09,20,16,43,19.90
2014,09,20,16,44,19.90
2014,09,20,16,45,19.90
2014,09,20,16,46,19.90
2014,09,20,16,47,19.90
2014,09,20,16,48,20.00
2014,09,20,16,49,20.00
2014,09,20,16,50,20.00
2014,09,20,16,51,20.00
2014,09,20,16,52,19.90
2014,09,20,16,53,19.90
2014,09,20,16,54,19.90
2014,09,20,16,55,19.90
2014,09,20,16,56,19.90
2014,09,20,16,57,19.90
2014,09,20,16,58,19.90
2014,09,20,16,59,19.90
2014,09,20,17,00,20.00
2014,09,20,17,01,20.10
2014,09,20,17,02,20.10
2014,09,20,17,03,20.10
2014,09,20,17,04,20.10
2014,09,20,17,05,20.20
2014,09,20,17,06,20.20
2014,09,20,17,07,20.20
2014,09,20,17,08,20.10
2014,09,20,17,09,20.10
2014,09,20,17,10,20.10
2014,09,20,17,11,20.10
2014,09,20,17,12,20.10
2014,09,20,17,13,20.10
2014,09,20,17,14,20.10
2014,09,20,17,15,20.20
2014,09,20,17,16,20.20
2014,09,20,17,17,20.20
2014,09,20,17,18,20.20
2014,09,20,17,19,20.20